Miscellaneous Local Product
Issued by NWS North Platte, NE

Home | Current Version | Previous Version | Text Only | Print | Product List | Glossary On
Versions: 1 2 3 4 5 6 7 8 9 10 11 12 13 14 15 16 17 18 19 20 21 22 23 24 25 26 27 28 29 30 31 32 33 34 35 36 37 38 39 40 41 42 43 44 45 46 47 48 49 50
586
AXUS43 KLBF 180110
MISLBF


WESTERN AND NORTH CENTRAL NEBRASKA HOURLY WEATHER ROUNDUP
NATIONAL WEATHER SERVICE NORTH PLATTE NE
700 PM CST FRI NOV 17 2017

NOTE: "FAIR" INDICATES FEW OR NO CLOUDS BELOW 12,000 FEET WITH NO
SIGNIFICANT WEATHER AND/OR OBSTRUCTIONS TO VISIBILITY.

NOTE: STATIONS NOT REPORTING VARIABLES SUCH AS SKY/WEATHER OR
PRESSURE ARE PROVIDED BY RAWS AND APRS NETWORKS AND ARE NOT UNDER
NATIONAL WEATHER SERVICE QUALITY CONTROL.

...OBSERVATIONS IN AND NEAR THE EASTERN PANHANDLE OF NEBRASKA...

CITY           SKY/WX    TMP DP  RH WIND       PRES   REMARKS
PINE RIDGE     LGT RAIN  40  36  86 N3        29.68R
GORDON         CLOUDY    39  34  82 CALM      29.67R
CHADRON        LGT RAIN  40  35  83 N10       29.68R WCI  33
ALLIANCE       MOCLDY    37  37 100 CALM      29.64F
SIDNEY         LGT RAIN  42  40  92 NW3       29.73R
CRESCENT LAKE    N/A     39  38  99 CALM        N/A
$$

...OBSERVATIONS IN NORTHERN NEBRASKA AND FAR SOUTHERN SOUTH DAKOTA...

CITY           SKY/WX    TMP DP  RH WIND       PRES   REMARKS
WINNER         CLOUDY    43  35  73 N6        29.71R
VALENTINE      CLOUDY    43  32  65 N6        29.69R
THEDFORD       RAIN      42  39  88 N7        29.68R
AINSWORTH      CLOUDY    40  37  88 N5        29.69R
O`NEILL        LGT RAIN  41  40  95 N9        29.66R
ORD            PTCLDY    45  35  68 N17G24    29.62R
BROKEN BOW     MOCLDY    46  33  60 N9        29.63R
VALENTINE NWR    N/A     40  36  87 N6          N/A
HALSEY           N/A     43  38  82 N3          N/A
BUTTE            N/A     41  35  79 N8          N/A
CHAMBERS         N/A     42  38  86 N3          N/A
EWING            N/A     42  37  81 N12         N/A
$$

...OBSERVATIONS IN SOUTHWEST NEBRASKA AND FAR NORTHEAST COLORADO...

CITY           SKY/WX    TMP DP  RH WIND       PRES   REMARKS
HOLYOKE        FAIR      45  32  61 N15       29.66R
OGALLALA       CLOUDY    48  29  48 NE10      29.66R
NORTH PLATTE   CLEAR     44  31  60 NE6       29.64R
MCCOOK         CLOUDY    49  33  54 NE15      29.59R
LEXINGTON      CLOUDY    46  33  61 N9        29.62R
STAPLETON        N/A     43  36  77 CALM        N/A
GOTHENBURG       N/A     45  31  58 NW3         N/A
CALLAWAY         N/A     43  35  72 N7          N/A
$$

...OBSERVATIONS IN CENTRAL LINCOLN COUNTY AREA...

CITY           SKY/WX    TMP DP  RH WIND       PRES   REMARKS
N.P. AIRPORT   CLEAR     44  31  60 NE6       29.64R
N.P. DOWNTOWN    N/A     43  31  61 N3          N/A
N.P. SOUTHEAST   N/A     44  32  63 N3          N/A
N.P. HILLCREST   N/A     48  33  56 N9          N/A
$$

...SOME OBSERVATIONS FROM AROUND THE REGION...

CITY           SKY/WX    TMP DP  RH WIND       PRES   REMARKS
DENVER         LGT RAIN  40  35  83 NE18      29.72R WCI  31
LIMON          CLOUDY    49  31  49 N23       29.66R
ASPEN          RAIN      37  35  92 N12G18    29.76R FOG     WCI  29
LARAMIE        LGT SNOW  29  28  96 NW29G40   29.77R FOG     WCI  14
CASPER         CLOUDY    32  30  92 N7        29.79R WCI  26
CHEYENNE       CLOUDY    36  30  79 NW25G41   29.71R WCI  24
SCOTTSBLUFF    CLOUDY    45  37  73 W9        29.69R
GRAND ISLAND   PTCLDY    46  36  68 N10       29.61R
OMAHA          MOCLDY    52  43  71 N10       29.55R
SIOUX FALLS    CLOUDY    42  34  73 N13       29.65R
PIERRE         CLOUDY    39  33  79 N7        29.71R WCI  34
RAPID CITY     CLOUDY    38  36  92 N5        29.72R WCI  34
BISMARCK       PTCLDY    29  23  78 N5        29.74R WCI  24
KANSAS CITY    CLOUDY    57  56  96 S9        29.48F
HILL CITY      PTCLDY    54  37  52 N16       29.52R
WICHITA        CLOUDY    64  52  64 S8        29.48F
DODGE CITY     PTCLDY    69  35  28 SW13      29.49S
OKLAHOMA CITY  CLOUDY    74  57  55 S20       29.59F
DALLAS         PTCLDY    78  64  61 S15       29.72R
AMARILLO       CLEAR     68  30  24 W12       29.74R
$$




USA.gov is the U.S. government's official web portal to all federal, state and local government web resources and services.